Location: Azul
(36.7830°S, 59.8500°W)
Time: 11:36:47
(UTC-03:00)

BEESAT 3 - Pass Details

Date: 23 October 2021
Orbit: 477 x 511 km, 64.9° (Epoch: 28 November)

Event Time Altitude Azimuth Distance (km) Brightness Sun altitude
Rises 03:50:28 0° 190° (S) 2,578 ? -24.8°
Reaches altitude 10° 03:53:47 10° 159° (SSE) 1,683 ? -24.2°
Maximum altitude 03:55:24 12° 133° (SE) 1,538 ? -24.0°
Drops below altitude 10° 03:56:59 10° 108° (ESE) 1,672 ? -23.7°
Sets 04:00:16 0° 76° (ENE) 2,541 ? -23.2°
